Time,TemperatureF,DewpointF,PressureIn,WindDirection,WindDirectionDegrees,WindSpeedMPH,WindSpeedGustMPH,Humidity,HourlyPrecipIn,Conditions,Clouds,dailyrainin,SoftwareType,DateUTC
2013-05-26 00:01:00,59.3,45.4,30.12,SE,133,11.0,12.0,60,0.00,,---,0.00,VWS V12.08,2013-05-26 05:01:00,
2013-05-26 00:06:00,59.6,45.7,30.12,ESE,115,9.0,10.0,60,0.00,,---,0.00,VWS V12.08,2013-05-26 05:06:00,
2013-05-26 00:11:00,59.8,45.9,30.12,SE,128,5.0,15.0,60,0.00,,---,0.00,VWS V12.08,2013-05-26 05:11:00,
2013-05-26 00:16:00,59.8,45.9,30.12,East,84,2.0,11.0,60,0.00,,---,0.00,VWS V12.08,2013-05-26 05:16:00,
2013-05-26 00:21:00,59.9,45.5,30.12,ESE,120,4.0,10.0,59,0.00,,---,0.00,VWS V12.08,2013-05-26 05:21:00,
2013-05-26 00:26:00,60.1,45.7,30.12,SE,136,5.0,9.0,59,0.00,,---,0.00,VWS V12.08,2013-05-26 05:26:00,
2013-05-26 00:31:00,60.2,45.8,30.12,SE,128,7.0,13.0,59,0.00,,---,0.00,VWS V12.08,2013-05-26 05:31:00,
2013-05-26 00:36:00,60.5,45.7,30.12,SE,138,4.0,10.0,58,0.00,,---,0.00,VWS V12.08,2013-05-26 05:36:00,
2013-05-26 00:41:00,60.5,45.7,30.12,SSE,160,4.0,11.0,58,0.00,,---,0.00,VWS V12.08,2013-05-26 05:41:00,
2013-05-26 00:46:00,60.7,45.8,30.12,SW,235,4.0,7.0,58,0.00,,---,0.00,VWS V12.08,2013-05-26 05:46:00,
2013-05-26 00:51:00,60.7,45.8,30.12,ESE,103,1.0,12.0,58,0.00,,---,0.00,VWS V12.08,2013-05-26 05:51:00,
2013-05-26 00:56:00,60.7,45.8,30.12,South,182,4.0,11.0,58,0.00,,---,0.00,VWS V12.08,2013-05-26 05:56:00,
2013-05-26 01:01:00,60.7,45.8,30.12,East,92,3.0,13.0,58,0.00,,---,0.00,VWS V12.08,2013-05-26 06:01:00,
2013-05-26 01:06:00,60.9,46.0,30.12,ESE,111,5.0,11.0,58,0.00,,---,0.00,VWS V12.08,2013-05-26 06:06:00,
2013-05-26 01:11:00,61.2,45.9,30.12,SSW,192,2.0,16.0,57,0.00,,---,0.00,VWS V12.08,2013-05-26 06:11:00,
2013-05-26 01:16:00,61.3,45.5,30.12,SSE,155,13.0,13.0,56,0.00,,---,0.00,VWS V12.08,2013-05-26 06:16:00,
2013-05-26 01:21:00,61.3,45.5,30.13,ESE,115,5.0,13.0,56,0.00,,---,0.00,VWS V12.08,2013-05-26 06:21:00,
2013-05-26 01:26:00,61.3,46.0,30.13,SE,146,7.0,11.0,57,0.00,,---,0.00,VWS V12.08,2013-05-26 06:26:00,
2013-05-26 01:31:00,61.3,46.0,30.13,East,96,3.0,12.0,57,0.00,,---,0.00,VWS V12.08,2013-05-26 06:31:00,
2013-05-26 01:36:00,61.2,45.9,30.13,SSE,163,10.0,18.0,57,0.00,,---,0.00,VWS V12.08,2013-05-26 06:36:00,
2013-05-26 01:41:00,61.0,45.7,30.13,SSE,148,9.0,14.0,57,0.00,,---,0.00,VWS V12.08,2013-05-26 06:41:00,
2013-05-26 01:46:00,60.9,46.0,30.13,SE,136,6.0,14.0,58,0.00,,---,0.00,VWS V12.08,2013-05-26 06:46:00,
2013-05-26 01:51:00,60.7,45.8,30.13,ESE,111,1.0,12.0,58,0.00,,---,0.00,VWS V12.08,2013-05-26 06:51:00,
2013-05-26 01:56:00,60.4,45.6,30.13,SSE,163,11.0,14.0,58,0.00,,---,0.00,VWS V12.08,2013-05-26 06:56:00,
2013-05-26 02:01:00,60.2,45.8,30.13,South,178,7.0,12.0,59,0.00,,---,0.00,VWS V12.08,2013-05-26 07:01:00,
2013-05-26 02:06:00,60.1,45.7,30.13,SE,143,4.0,19.0,59,0.00,,---,0.00,VWS V12.08,2013-05-26 07:06:00,
2013-05-26 02:11:00,59.9,46.0,30.13,SSE,159,10.0,13.0,60,0.00,,---,0.00,VWS V12.08,2013-05-26 07:11:00,
2013-05-26 02:16:00,59.8,45.9,30.13,East,101,7.0,16.0,60,0.00,,---,0.00,VWS V12.08,2013-05-26 07:16:00,
2013-05-26 02:21:00,59.6,46.2,30.12,SE,136,4.0,13.0,61,0.00,,---,0.00,VWS V12.08,2013-05-26 07:21:00,
2013-05-26 02:26:00,59.5,46.1,30.12,South,190,4.0,12.0,61,0.00,,---,0.00,VWS V12.08,2013-05-26 07:26:00,
2013-05-26 02:31:00,59.5,46.1,30.12,South,171,5.0,10.0,61,0.00,,---,0.00,VWS V12.08,2013-05-26 07:31:00,
2013-05-26 02:36:00,59.3,46.3,30.13,SSE,162,6.0,14.0,62,0.00,,---,0.00,VWS V12.08,2013-05-26 07:36:00,
2013-05-26 02:41:00,59.2,46.2,30.13,South,185,5.0,11.0,62,0.00,,---,0.00,VWS V12.08,2013-05-26 07:41:00,
2013-05-26 02:46:00,59.2,46.2,30.13,East,98,4.0,10.0,62,0.00,,---,0.00,VWS V12.08,2013-05-26 07:46:00,
2013-05-26 02:50:00,59.0,46.4,30.13,SSW,196,4.0,10.0,63,0.00,,---,0.00,VWS V12.08,2013-05-26 07:50:00,
2013-05-26 02:55:00,58.9,46.3,30.13,SSE,158,6.0,14.0,63,0.00,,---,0.00,VWS V12.08,2013-05-26 07:55:00,
2013-05-26 03:00:00,58.7,46.2,30.13,South,176,5.0,11.0,63,0.00,,---,0.00,VWS V12.08,2013-05-26 08:00:00,
2013-05-26 03:05:00,58.6,46.5,30.12,South,176,6.0,10.0,64,0.00,,---,0.00,VWS V12.08,2013-05-26 08:05:00,
2013-05-26 03:10:00,58.4,46.3,30.12,South,184,5.0,10.0,64,0.00,,---,0.00,VWS V12.08,2013-05-26 08:10:00,
2013-05-26 03:15:00,58.3,46.2,30.12,SSE,167,4.0,9.0,64,0.00,,---,0.00,VWS V12.08,2013-05-26 08:15:00,
2013-05-26 03:20:00,58.3,46.6,30.12,South,178,5.0,10.0,65,0.00,,---,0.00,VWS V12.08,2013-05-26 08:20:00,
2013-05-26 03:25:00,58.1,46.4,30.12,SSE,158,3.0,9.0,65,0.00,,---,0.00,VWS V12.08,2013-05-26 08:25:00,
2013-05-26 03:30:00,58.0,46.3,30.12,South,171,3.0,8.0,65,0.00,,---,0.00,VWS V12.08,2013-05-26 08:30:00,
2013-05-26 03:35:00,57.8,46.5,30.12,South,189,5.0,13.0,66,0.00,,---,0.00,VWS V12.08,2013-05-26 08:35:00,
2013-05-26 03:40:00,57.6,46.3,30.12,SSE,155,5.0,9.0,66,0.00,,---,0.00,VWS V12.08,2013-05-26 08:40:00,
2013-05-26 03:45:00,57.5,46.2,30.12,SE,136,5.0,9.0,66,0.00,,---,0.00,VWS V12.08,2013-05-26 08:45:00,
2013-05-26 03:50:00,57.5,46.2,30.12,SE,144,4.0,10.0,66,0.00,,---,0.00,VWS V12.08,2013-05-26 08:50:00,
2013-05-26 03:55:00,57.3,46.0,30.12,SE,144,2.0,11.0,66,0.00,,---,0.00,VWS V12.08,2013-05-26 08:55:00,
2013-05-26 04:00:00,57.3,46.5,30.12,South,170,3.0,10.0,67,0.00,,---,0.00,VWS V12.08,2013-05-26 09:00:00,
2013-05-26 04:05:00,57.3,46.5,30.11,SE,131,5.0,10.0,67,0.00,,---,0.00,VWS V12.08,2013-05-26 09:05:00,
2013-05-26 04:10:00,57.2,46.4,30.11,ESE,110,6.0,8.0,67,0.00,,---,0.00,VWS V12.08,2013-05-26 09:10:00,
2013-05-26 04:15:00,57.2,46.4,30.11,SSE,163,2.0,11.0,67,0.00,,---,0.00,VWS V12.08,2013-05-26 09:15:00,
2013-05-26 04:20:00,57.2,46.4,30.11,SSE,161,9.0,11.0,67,0.00,,---,0.00,VWS V12.08,2013-05-26 09:20:00,
2013-05-26 04:25:00,57.2,46.4,30.11,SSW,207,4.0,11.0,67,0.00,,---,0.00,VWS V12.08,2013-05-26 09:25:00,
2013-05-26 04:30:00,57.2,46.8,30.11,SE,133,3.0,6.0,68,0.00,,---,0.00,VWS V12.08,2013-05-26 09:30:00,
2013-05-26 04:35:00,57.2,46.8,30.11,East,92,2.0,5.0,68,0.00,,---,0.00,VWS V12.08,2013-05-26 09:35:00,
2013-05-26 04:40:00,57.0,46.6,30.11,SE,136,2.0,11.0,68,0.00,,---,0.00,VWS V12.08,2013-05-26 09:40:00,
2013-05-26 04:45:00,57.0,46.6,30.11,South,179,2.0,7.0,68,0.00,,---,0.00,VWS V12.08,2013-05-26 09:45:00,
2013-05-26 04:50:00,56.9,46.5,30.11,East,87,5.0,11.0,68,0.00,,---,0.00,VWS V12.08,2013-05-26 09:50:00,
2013-05-26 04:55:00,56.9,46.5,30.11,South,176,2.0,9.0,68,0.00,,---,0.00,VWS V12.08,2013-05-26 09:55:00,
2013-05-26 05:00:00,56.9,46.5,30.11,SSE,147,2.0,9.0,68,0.00,,---,0.00,VWS V12.08,2013-05-26 10:00:00,
2013-05-26 05:05:00,56.7,46.3,30.11,SSW,203,3.0,8.0,68,0.00,,---,0.00,VWS V12.08,2013-05-26 10:05:00,
2013-05-26 05:10:00,56.7,46.3,30.11,South,186,2.0,6.0,68,0.00,,---,0.00,VWS V12.08,2013-05-26 10:10:00,
2013-05-26 05:15:00,56.7,46.3,30.11,SSE,160,5.0,9.0,68,0.00,,---,0.00,VWS V12.08,2013-05-26 10:15:00,
2013-05-26 05:20:00,56.9,46.5,30.11,South,175,4.0,9.0,68,0.00,,---,0.00,VWS V12.08,2013-05-26 10:20:00,
2013-05-26 05:25:00,56.9,46.5,30.11,ESE,113,3.0,6.0,68,0.00,,---,0.00,VWS V12.08,2013-05-26 10:25:00,
2013-05-26 05:30:00,56.7,46.3,30.11,East,101,2.0,10.0,68,0.00,,---,0.00,VWS V12.08,2013-05-26 10:30:00,
2013-05-26 05:35:00,56.7,46.3,30.11,SE,138,2.0,12.0,68,0.00,,---,0.00,VWS V12.08,2013-05-26 10:35:00,
2013-05-26 05:40:00,56.7,46.3,30.11,ESE,121,9.0,13.0,68,0.00,,---,0.00,VWS V12.08,2013-05-26 10:40:00,
2013-05-26 05:45:00,56.9,46.5,30.11,South,178,6.0,13.0,68,0.00,,---,0.00,VWS V12.08,2013-05-26 10:45:00,
2013-05-26 05:50:00,56.9,46.5,30.12,SE,138,7.0,11.0,68,0.00,,---,0.00,VWS V12.08,2013-05-26 10:50:00,
2013-05-26 05:55:00,56.9,46.5,30.12,SE,125,2.0,10.0,68,0.00,,---,0.00,VWS V12.08,2013-05-26 10:55:00,
2013-05-26 06:00:00,56.9,46.5,30.12,SE,128,5.0,8.0,68,0.00,,---,0.00,VWS V12.08,2013-05-26 11:00:00,
2013-05-26 06:05:00,56.9,46.5,30.13,SE,139,11.0,14.0,68,0.00,,---,0.00,VWS V12.08,2013-05-26 11:05:00,
2013-05-26 06:10:00,56.7,46.3,30.13,SSE,153,10.0,15.0,68,0.00,,---,0.00,VWS V12.08,2013-05-26 11:10:00,
2013-05-26 06:15:00,56.7,46.3,30.13,East,90,8.0,15.0,68,0.00,,---,0.00,VWS V12.08,2013-05-26 11:15:00,
2013-05-26 06:20:00,56.6,46.2,30.14,SSE,157,4.0,11.0,68,0.00,,---,0.00,VWS V12.08,2013-05-26 11:20:00,
2013-05-26 06:25:00,56.6,46.2,30.14,SSW,200,3.0,13.0,68,0.00,,---,0.00,VWS V12.08,2013-05-26 11:25:00,
2013-05-26 06:30:00,56.5,46.1,30.14,SSE,165,3.0,16.0,68,0.00,,---,0.00,VWS V12.08,2013-05-26 11:30:00,
2013-05-26 06:35:00,56.5,45.7,30.15,ESE,122,13.0,13.0,67,0.00,,---,0.00,VWS V12.08,2013-05-26 11:35:00,
2013-05-26 06:40:00,56.5,45.7,30.15,SSE,158,14.0,14.0,67,0.00,,---,0.00,VWS V12.08,2013-05-26 11:40:00,
2013-05-26 06:45:00,56.5,45.7,30.15,SSE,161,12.0,14.0,67,0.00,,---,0.00,VWS V12.08,2013-05-26 11:45:00,
2013-05-26 06:50:00,56.5,45.7,30.15,South,186,5.0,11.0,67,0.00,,---,0.00,VWS V12.08,2013-05-26 11:50:00,
2013-05-26 06:55:00,56.3,45.5,30.15,SSE,152,3.0,18.0,67,0.00,,---,0.00,VWS V12.08,2013-05-26 11:55:00,
2013-05-26 07:00:00,56.5,45.7,30.15,ESE,123,4.0,7.0,67,0.00,,---,0.00,VWS V12.08,2013-05-26 12:00:00,
2013-05-26 07:05:00,56.3,45.5,30.15,ESE,113,5.0,11.0,67,0.00,,---,0.00,VWS V12.08,2013-05-26 12:05:00,
2013-05-26 07:10:00,56.5,45.7,30.15,East,86,3.0,10.0,67,0.00,,---,0.00,VWS V12.08,2013-05-26 12:10:00,
2013-05-26 07:15:00,56.5,45.7,30.15,SSE,162,5.0,7.0,67,0.00,,---,0.00,VWS V12.08,2013-05-26 12:15:00,
2013-05-26 07:20:00,56.5,45.7,30.15,East,90,4.0,7.0,67,0.00,,---,0.00,VWS V12.08,2013-05-26 12:20:00,
2013-05-26 07:25:00,56.5,45.3,30.15,East,90,3.0,10.0,66,0.00,,---,0.00,VWS V12.08,2013-05-26 12:25:00,
2013-05-26 07:30:00,56.5,45.3,30.15,SE,132,5.0,10.0,66,0.00,,---,0.00,VWS V12.08,2013-05-26 12:30:00,
2013-05-26 07:35:00,56.5,45.3,30.15,SSE,147,10.0,15.0,66,0.00,,---,0.00,VWS V12.08,2013-05-26 12:35:00,
2013-05-26 07:40:00,56.5,45.3,30.15,SSE,161,7.0,12.0,66,0.00,,---,0.00,VWS V12.08,2013-05-26 12:40:00,
2013-05-26 07:45:00,56.6,45.4,30.15,ESE,118,6.0,9.0,66,0.00,,---,0.00,VWS V12.08,2013-05-26 12:45:00,
2013-05-26 07:50:00,56.6,45.0,30.15,SE,125,2.0,13.0,65,0.00,,---,0.00,VWS V12.08,2013-05-26 12:50:00,
2013-05-26 07:55:00,56.7,45.1,30.15,South,183,2.0,9.0,65,0.00,,---,0.00,VWS V12.08,2013-05-26 12:55:00,
2013-05-26 08:00:00,56.6,44.6,30.15,East,95,10.0,17.0,64,0.00,,---,0.00,VWS V12.08,2013-05-26 13:00:00,
2013-05-26 08:05:00,56.6,44.6,30.15,SSE,157,9.0,15.0,64,0.00,,---,0.00,VWS V12.08,2013-05-26 13:05:00,
2013-05-26 08:10:00,56.6,44.6,30.15,SSE,160,6.0,13.0,64,0.00,,---,0.00,VWS V12.08,2013-05-26 13:10:00,
2013-05-26 08:15:00,56.7,44.7,30.15,ESE,113,9.0,12.0,64,0.00,,---,0.00,VWS V12.08,2013-05-26 13:15:00,
2013-05-26 08:20:00,56.9,44.5,30.15,SW,230,5.0,11.0,63,0.00,,---,0.00,VWS V12.08,2013-05-26 13:20:00,
2013-05-26 08:25:00,56.7,44.3,30.15,SE,144,16.0,16.0,63,0.00,,---,0.00,VWS V12.08,2013-05-26 13:25:00,
2013-05-26 08:30:00,56.9,44.0,30.15,SSE,165,14.0,17.0,62,0.00,,---,0.00,VWS V12.08,2013-05-26 13:30:00,
2013-05-26 08:35:00,57.0,44.1,30.15,South,175,5.0,12.0,62,0.00,,---,0.00,VWS V12.08,2013-05-26 13:35:00,
2013-05-26 08:40:00,57.2,43.9,30.15,ESE,123,7.0,10.0,61,0.00,,---,0.00,VWS V12.08,2013-05-26 13:40:00,
2013-05-26 08:45:00,57.2,43.9,30.15,SSE,158,4.0,13.0,61,0.00,,---,0.00,VWS V12.08,2013-05-26 13:45:00,
2013-05-26 08:50:00,57.3,44.0,30.14,SE,138,4.0,9.0,61,0.00,,---,0.00,VWS V12.08,2013-05-26 13:50:00,
2013-05-26 08:55:00,57.5,44.2,30.14,ESE,115,6.0,14.0,61,0.00,,---,0.00,VWS V12.08,2013-05-26 13:55:00,
2013-05-26 09:00:00,57.5,44.2,30.14,East,98,4.0,14.0,61,0.00,,---,0.00,VWS V12.08,2013-05-26 14:00:00,
2013-05-26 09:05:00,57.8,44.0,30.13,SE,146,2.0,13.0,60,0.00,,---,0.00,VWS V12.08,2013-05-26 14:05:00,
2013-05-26 09:10:00,58.1,44.3,30.13,ESE,123,8.0,10.0,60,0.00,,---,0.00,VWS V12.08,2013-05-26 14:10:00,
2013-05-26 09:15:00,58.1,44.3,30.13,ESE,107,2.0,15.0,60,0.00,,---,0.00,VWS V12.08,2013-05-26 14:15:00,
2013-05-26 09:20:00,58.4,44.1,30.13,South,190,4.0,9.0,59,0.00,,---,0.00,VWS V12.08,2013-05-26 14:20:00,
2013-05-26 09:25:00,58.7,44.0,30.13,SSE,164,11.0,17.0,58,0.00,,---,0.00,VWS V12.08,2013-05-26 14:25:00,
2013-05-26 09:30:00,58.9,44.2,30.13,ESE,117,12.0,12.0,58,0.00,,---,0.00,VWS V12.08,2013-05-26 14:30:00,
2013-05-26 09:35:00,58.9,44.2,30.13,SSE,165,7.0,20.0,58,0.00,,---,0.00,VWS V12.08,2013-05-26 14:35:00,
2013-05-26 09:40:00,59.0,44.3,30.13,SSE,149,10.0,13.0,58,0.00,,---,0.00,VWS V12.08,2013-05-26 14:40:00,
2013-05-26 09:45:00,59.0,44.3,30.13,SSE,155,4.0,22.0,58,0.00,,---,0.00,VWS V12.08,2013-05-26 14:45:00,
2013-05-26 09:50:00,59.0,43.8,30.13,SSE,155,14.0,16.0,57,0.00,,---,0.00,VWS V12.08,2013-05-26 14:50:00,
2013-05-26 09:55:00,59.3,44.1,30.13,SSE,161,12.0,13.0,57,0.00,,---,0.00,VWS V12.08,2013-05-26 14:55:00,
2013-05-26 10:00:00,59.2,43.5,30.13,South,170,4.0,15.0,56,0.00,,---,0.00,VWS V12.08,2013-05-26 15:00:00,
2013-05-26 10:05:00,59.3,43.6,30.12,ESE,123,11.0,15.0,56,0.00,,---,0.00,VWS V12.08,2013-05-26 15:05:00,
2013-05-26 10:10:00,59.3,43.2,30.12,SSW,194,10.0,12.0,55,0.00,,---,0.00,VWS V12.08,2013-05-26 15:10:00,
2013-05-26 10:15:00,59.6,43.4,30.12,SE,131,13.0,14.0,55,0.00,,---,0.00,VWS V12.08,2013-05-26 15:15:00,
2013-05-26 10:20:00,59.9,43.7,30.12,SE,135,10.0,16.0,55,0.00,,---,0.00,VWS V12.08,2013-05-26 15:20:00,
2013-05-26 10:25:00,60.4,43.7,30.12,SSW,199,6.0,17.0,54,0.00,,---,0.00,VWS V12.08,2013-05-26 15:25:00,
2013-05-26 10:30:00,60.9,43.7,30.12,SSE,163,5.0,12.0,53,0.00,,---,0.00,VWS V12.08,2013-05-26 15:30:00,
2013-05-26 10:35:00,61.2,44.4,30.12,SSE,161,10.0,13.0,54,0.00,,---,0.00,VWS V12.08,2013-05-26 15:35:00,
2013-05-26 10:40:00,61.5,43.7,30.12,SE,146,6.0,10.0,52,0.00,,---,0.00,VWS V12.08,2013-05-26 15:40:00,
2013-05-26 10:45:00,61.8,44.0,30.12,West,274,4.0,14.0,52,0.00,,---,0.00,VWS V12.08,2013-05-26 15:45:00,
2013-05-26 10:50:00,62.0,44.2,30.11,East,91,7.0,19.0,52,0.00,,---,0.00,VWS V12.08,2013-05-26 15:50:00,
2013-05-26 10:55:00,62.1,44.3,30.11,SE,140,13.0,18.0,52,0.00,,---,0.00,VWS V12.08,2013-05-26 15:55:00,
2013-05-26 11:00:00,62.3,44.0,30.11,SE,137,11.0,16.0,51,0.00,,---,0.00,VWS V12.08,2013-05-26 16:00:00,
2013-05-26 11:05:00,62.6,44.2,30.10,ENE,57,12.0,19.0,51,0.00,,---,0.00,VWS V12.08,2013-05-26 16:05:00,
2013-05-26 11:10:00,62.6,44.2,30.10,SSW,198,3.0,17.0,51,0.00,,---,0.00,VWS V12.08,2013-05-26 16:10:00,
2013-05-26 11:15:00,63.1,44.2,30.10,SSE,155,10.0,15.0,50,0.00,,---,0.00,VWS V12.08,2013-05-26 16:15:00,
2013-05-26 11:20:00,63.4,44.5,30.10,SE,126,7.0,19.0,50,0.00,,---,0.00,VWS V12.08,2013-05-26 16:20:00,
2013-05-26 11:25:00,63.5,44.5,30.10,South,181,13.0,20.0,50,0.00,,---,0.00,VWS V12.08,2013-05-26 16:25:00,
2013-05-26 11:30:00,63.7,44.2,30.10,ENE,59,5.0,14.0,49,0.00,,---,0.00,VWS V12.08,2013-05-26 16:30:00,
2013-05-26 11:35:00,63.5,44.0,30.09,SSE,153,12.0,20.0,49,0.00,,---,0.00,VWS V12.08,2013-05-26 16:35:00,
2013-05-26 11:40:00,63.5,44.0,30.09,NE,46,10.0,13.0,49,0.00,,---,0.00,VWS V12.08,2013-05-26 16:40:00,
2013-05-26 11:45:00,64.0,44.5,30.09,SSE,159,5.0,11.0,49,0.00,,---,0.00,VWS V12.08,2013-05-26 16:45:00,
2013-05-26 11:50:00,64.7,44.6,30.09,SE,133,14.0,18.0,48,0.00,,---,0.00,VWS V12.08,2013-05-26 16:50:00,
2013-05-26 11:55:00,64.5,44.4,30.09,SSE,148,6.0,16.0,48,0.00,,---,0.00,VWS V12.08,2013-05-26 16:55:00,
2013-05-26 12:00:00,64.5,45.5,30.09,SE,144,5.0,16.0,50,0.00,,---,0.00,VWS V12.08,2013-05-26 17:00:00,
2013-05-26 12:05:00,64.7,44.6,30.09,SSW,199,5.0,13.0,48,0.00,,---,0.00,VWS V12.08,2013-05-26 17:05:00,
2013-05-26 12:10:00,65.3,44.6,30.09,SE,140,9.0,13.0,47,0.00,,---,0.00,VWS V12.08,2013-05-26 17:10:00,
2013-05-26 12:15:00,65.6,44.3,30.09,SE,142,6.0,13.0,46,0.00,,---,0.00,VWS V12.08,2013-05-26 17:15:00,
2013-05-26 12:20:00,66.0,44.1,30.08,SSE,150,5.0,10.0,45,0.00,,---,0.00,VWS V12.08,2013-05-26 17:20:00,
2013-05-26 12:25:00,66.1,44.7,30.08,SSW,213,3.0,9.0,46,0.00,,---,0.00,VWS V12.08,2013-05-26 17:25:00,
2013-05-26 12:30:00,66.4,44.4,30.08,SSE,152,7.0,15.0,45,0.00,,---,0.00,VWS V12.08,2013-05-26 17:30:00,
2013-05-26 12:35:00,66.6,44.6,30.08,ESE,120,3.0,11.0,45,0.00,,---,0.00,VWS V12.08,2013-05-26 17:35:00,
2013-05-26 12:40:00,67.1,44.5,30.08,SSW,192,4.0,12.0,44,0.00,,---,0.00,VWS V12.08,2013-05-26 17:40:00,
2013-05-26 12:45:00,67.3,44.7,30.08,East,80,4.0,16.0,44,0.00,,---,0.00,VWS V12.08,2013-05-26 17:45:00,
2013-05-26 12:50:00,67.1,45.1,30.07,SSW,193,9.0,13.0,45,0.00,,---,0.00,VWS V12.08,2013-05-26 17:50:00,
2013-05-26 12:55:00,67.3,44.7,30.07,South,181,6.0,17.0,44,0.00,,---,0.00,VWS V12.08,2013-05-26 17:55:00,
2013-05-26 13:00:00,67.1,44.5,30.07,SSE,159,7.0,15.0,44,0.00,,---,0.00,VWS V12.08,2013-05-26 18:00:00,
2013-05-26 13:05:00,67.6,44.9,30.07,ESE,122,5.0,25.0,44,0.00,,---,0.00,VWS V12.08,2013-05-26 18:05:00,
2013-05-26 13:10:00,67.8,45.1,30.07,ESE,108,13.0,17.0,44,0.00,,---,0.00,VWS V12.08,2013-05-26 18:10:00,
2013-05-26 13:15:00,67.6,45.5,30.07,ESE,111,5.0,17.0,45,0.00,,---,0.00,VWS V12.08,2013-05-26 18:15:00,
2013-05-26 13:20:00,68.1,45.4,30.06,SW,236,6.0,14.0,44,0.00,,---,0.00,VWS V12.08,2013-05-26 18:20:00,
2013-05-26 13:25:00,68.4,45.0,30.06,SSE,148,10.0,17.0,43,0.00,,---,0.00,VWS V12.08,2013-05-26 18:25:00,
2013-05-26 13:30:00,68.1,44.8,30.06,SE,140,8.0,17.0,43,0.00,,---,0.00,VWS V12.08,2013-05-26 18:30:00,
2013-05-26 13:35:00,68.4,45.0,30.06,SSE,161,6.0,13.0,43,0.00,,---,0.00,VWS V12.08,2013-05-26 18:35:00,
2013-05-26 13:40:00,68.6,45.2,30.06,SSE,163,10.0,15.0,43,0.00,,---,0.00,VWS V12.08,2013-05-26 18:40:00,
2013-05-26 13:45:00,68.9,44.9,30.06,East,94,8.0,18.0,42,0.00,,---,0.00,VWS V12.08,2013-05-26 18:45:00,
2013-05-26 13:50:00,68.6,44.6,30.06,ESE,117,9.0,18.0,42,0.00,,---,0.00,VWS V12.08,2013-05-26 18:50:00,
2013-05-26 13:55:00,69.1,45.1,30.06,ENE,76,3.0,9.0,42,0.00,,---,0.00,VWS V12.08,2013-05-26 18:55:00,
2013-05-26 14:00:00,69.6,44.2,30.06,SE,131,17.0,17.0,40,0.00,,---,0.00,VWS V12.08,2013-05-26 19:00:00,
2013-05-26 14:05:00,69.3,44.6,30.05,ESE,121,3.0,14.0,41,0.00,,---,0.00,VWS V12.08,2013-05-26 19:05:00,
2013-05-26 14:10:00,69.3,44.6,30.05,ESE,103,4.0,13.0,41,0.00,,---,0.00,VWS V12.08,2013-05-26 19:10:00,
2013-05-26 14:15:00,69.1,44.4,30.05,WSW,243,5.0,18.0,41,0.00,,---,0.00,VWS V12.08,2013-05-26 19:15:00,
2013-05-26 14:20:00,69.1,44.4,30.05,South,183,11.0,14.0,41,0.00,,---,0.00,VWS V12.08,2013-05-26 19:20:00,
2013-05-26 14:25:00,69.1,43.8,30.05,South,189,10.0,14.0,40,0.00,,---,0.00,VWS V12.08,2013-05-26 19:25:00,
2013-05-26 14:30:00,69.1,43.8,30.05,ENE,67,5.0,17.0,40,0.00,,---,0.00,VWS V12.08,2013-05-26 19:30:00,
2013-05-26 14:35:00,69.4,44.1,30.04,SE,146,3.0,7.0,40,0.00,,---,0.00,VWS V12.08,2013-05-26 19:35:00,
2013-05-26 14:40:00,69.9,43.8,30.04,East,99,3.0,13.0,39,0.00,,---,0.00,VWS V12.08,2013-05-26 19:40:00,
2013-05-26 14:45:00,70.1,43.3,30.04,NE,46,1.0,14.0,38,0.00,,---,0.00,VWS V12.08,2013-05-26 19:45:00,
2013-05-26 14:50:00,70.1,42.7,30.03,SSE,156,10.0,14.0,37,0.00,,---,0.00,VWS V12.08,2013-05-26 19:50:00,
2013-05-26 14:55:00,70.4,42.9,30.03,SSE,151,9.0,12.0,37,0.00,,---,0.00,VWS V12.08,2013-05-26 19:55:00,
2013-05-26 15:00:00,70.6,42.4,30.03,SSE,161,12.0,15.0,36,0.00,,---,0.00,VWS V12.08,2013-05-26 20:00:00,
2013-05-26 15:05:00,70.6,42.4,30.03,SE,144,6.0,13.0,36,0.00,,---,0.00,VWS V12.08,2013-05-26 20:05:00,
2013-05-26 15:10:00,70.4,42.2,30.03,ESE,122,3.0,21.0,36,0.00,,---,0.00,VWS V12.08,2013-05-26 20:10:00,
2013-05-26 15:15:00,70.4,40.7,30.03,SSW,207,5.0,14.0,34,0.00,,---,0.00,VWS V12.08,2013-05-26 20:15:00,
2013-05-26 15:20:00,70.8,41.8,30.04,SW,231,6.0,13.0,35,0.00,,---,0.00,VWS V12.08,2013-05-26 20:20:00,
2013-05-26 15:25:00,70.8,41.8,30.04,SSW,194,5.0,15.0,35,0.00,,---,0.00,VWS V12.08,2013-05-26 20:25:00,
2013-05-26 15:30:00,70.3,40.6,30.04,SSW,192,7.0,14.0,34,0.00,,---,0.00,VWS V12.08,2013-05-26 20:30:00,
2013-05-26 15:35:00,70.6,40.9,30.04,SSE,164,7.0,15.0,34,0.00,,---,0.00,VWS V12.08,2013-05-26 20:35:00,
2013-05-26 15:40:00,70.3,40.6,30.04,SE,142,15.0,15.0,34,0.00,,---,0.00,VWS V12.08,2013-05-26 20:40:00,
2013-05-26 15:45:00,70.3,39.9,30.04,NE,53,5.0,18.0,33,0.00,,---,0.00,VWS V12.08,2013-05-26 20:45:00,
2013-05-26 15:50:00,70.3,40.6,30.04,SW,215,12.0,15.0,34,0.00,,---,0.00,VWS V12.08,2013-05-26 20:50:00,
2013-05-26 15:55:00,70.3,39.9,30.04,SSE,153,9.0,16.0,33,0.00,,---,0.00,VWS V12.08,2013-05-26 20:55:00,
2013-05-26 16:00:00,70.4,40.0,30.04,WSW,240,4.0,20.0,33,0.00,,---,0.00,VWS V12.08,2013-05-26 21:00:00,
2013-05-26 16:05:00,70.3,39.1,30.05,ESE,115,13.0,15.0,32,0.00,,---,0.00,VWS V12.08,2013-05-26 21:05:00,
2013-05-26 16:10:00,70.3,39.1,30.05,ESE,123,8.0,16.0,32,0.00,,---,0.00,VWS V12.08,2013-05-26 21:10:00,
2013-05-26 16:15:00,70.6,39.3,30.05,SSE,167,9.0,16.0,32,0.00,,---,0.00,VWS V12.08,2013-05-26 21:15:00,
2013-05-26 16:20:00,70.8,39.5,30.04,East,91,6.0,18.0,32,0.00,,---,0.00,VWS V12.08,2013-05-26 21:20:00,
2013-05-26 16:25:00,70.6,39.3,30.04,South,185,3.0,17.0,32,0.00,,---,0.00,VWS V12.08,2013-05-26 21:25:00,
2013-05-26 16:30:00,70.6,39.3,30.04,SE,146,5.0,14.0,32,0.00,,---,0.00,VWS V12.08,2013-05-26 21:30:00,
2013-05-26 16:35:00,70.8,39.5,30.04,South,185,9.0,16.0,32,0.00,,---,0.00,VWS V12.08,2013-05-26 21:35:00,
2013-05-26 16:40:00,70.9,39.6,30.04,SSE,157,10.0,13.0,32,0.00,,---,0.00,VWS V12.08,2013-05-26 21:40:00,
2013-05-26 16:45:00,70.9,39.6,30.04,SW,217,6.0,13.0,32,0.00,,---,0.00,VWS V12.08,2013-05-26 21:45:00,
2013-05-26 16:50:00,70.9,39.6,30.04,South,182,9.0,14.0,32,0.00,,---,0.00,VWS V12.08,2013-05-26 21:50:00,
2013-05-26 16:55:00,71.1,39.8,30.04,SE,140,9.0,12.0,32,0.00,,---,0.00,VWS V12.08,2013-05-26 21:55:00,
2013-05-26 17:00:00,70.8,39.5,30.04,SSE,159,9.0,16.0,32,0.00,,---,0.00,VWS V12.08,2013-05-26 22:00:00,
2013-05-26 17:05:00,70.8,39.5,30.03,SSE,159,5.0,17.0,32,0.00,,---,0.00,VWS V12.08,2013-05-26 22:05:00,
2013-05-26 17:10:00,70.8,39.5,30.03,SSE,165,11.0,16.0,32,0.00,,---,0.00,VWS V12.08,2013-05-26 22:10:00,
2013-05-26 17:15:00,70.9,39.6,30.03,South,175,6.0,11.0,32,0.00,,---,0.00,VWS V12.08,2013-05-26 22:15:00,
2013-05-26 17:20:00,71.5,40.1,30.03,ESE,123,4.0,11.0,32,0.00,,---,0.00,VWS V12.08,2013-05-26 22:20:00,
2013-05-26 17:25:00,71.5,40.1,30.03,SSE,166,5.0,12.0,32,0.00,,---,0.00,VWS V12.08,2013-05-26 22:25:00,
2013-05-26 17:30:00,71.1,39.8,30.03,West,273,4.0,13.0,32,0.00,,---,0.00,VWS V12.08,2013-05-26 22:30:00,
2013-05-26 17:35:00,71.1,39.8,30.03,SSE,156,2.0,13.0,32,0.00,,---,0.00,VWS V12.08,2013-05-26 22:35:00,
2013-05-26 17:40:00,70.9,40.4,30.03,SSW,200,3.0,12.0,33,0.00,,---,0.00,VWS V12.08,2013-05-26 22:40:00,
2013-05-26 17:45:00,71.1,39.8,30.03,ESE,111,5.0,13.0,32,0.00,,---,0.00,VWS V12.08,2013-05-26 22:45:00,
2013-05-26 17:50:00,71.1,39.8,30.02,SE,141,14.0,15.0,32,0.00,,---,0.00,VWS V12.08,2013-05-26 22:50:00,
2013-05-26 17:55:00,70.9,40.4,30.02,ESE,123,5.0,10.0,33,0.00,,---,0.00,VWS V12.08,2013-05-26 22:55:00,
2013-05-26 18:00:00,71.1,40.6,30.02,South,175,6.0,13.0,33,0.00,,---,0.00,VWS V12.08,2013-05-26 23:00:00,
2013-05-26 18:05:00,71.3,40.7,30.02,SSW,202,7.0,14.0,33,0.00,,---,0.00,VWS V12.08,2013-05-26 23:05:00,
2013-05-26 18:10:00,70.9,40.4,30.02,South,185,5.0,12.0,33,0.00,,---,0.00,VWS V12.08,2013-05-26 23:10:00,
2013-05-26 18:15:00,70.9,40.4,30.02,South,178,7.0,14.0,33,0.00,,---,0.00,VWS V12.08,2013-05-26 23:15:00,
2013-05-26 18:20:00,70.8,40.3,30.02,WSW,251,4.0,9.0,33,0.00,,---,0.00,VWS V12.08,2013-05-26 23:20:00,
2013-05-26 18:25:00,70.6,40.1,30.02,SW,219,11.0,20.0,33,0.00,,---,0.00,VWS V12.08,2013-05-26 23:25:00,
2013-05-26 18:30:00,70.4,40.7,30.02,SSE,153,4.0,13.0,34,0.00,,---,0.00,VWS V12.08,2013-05-26 23:30:00,
2013-05-26 18:35:00,70.6,40.9,30.02,SSW,201,7.0,7.0,34,0.00,,---,0.00,VWS V12.08,2013-05-26 23:35:00,
2013-05-26 18:40:00,70.8,40.3,30.02,SSE,165,3.0,10.0,33,0.00,,---,0.00,VWS V12.08,2013-05-26 23:40:00,
2013-05-26 18:45:00,70.8,39.5,30.02,SSE,165,4.0,11.0,32,0.00,,---,0.00,VWS V12.08,2013-05-26 23:45:00,
2013-05-26 18:50:00,70.8,40.3,30.01,SE,127,6.0,10.0,33,0.00,,---,0.00,VWS V12.08,2013-05-26 23:50:00,
2013-05-26 18:55:00,70.6,39.3,30.01,South,172,10.0,15.0,32,0.00,,---,0.00,VWS V12.08,2013-05-26 23:55:00,
2013-05-26 19:00:00,70.6,40.1,30.01,South,188,6.0,13.0,33,0.00,,---,0.00,VWS V12.08,2013-05-27 00:00:00,
2013-05-26 19:05:00,70.6,40.1,30.01,South,169,7.0,10.0,33,0.00,,---,0.00,VWS V12.08,2013-05-27 00:05:00,
2013-05-26 19:10:00,70.4,40.7,30.01,SE,144,9.0,10.0,34,0.00,,---,0.00,VWS V12.08,2013-05-27 00:10:00,
2013-05-26 19:15:00,70.3,39.9,30.01,ESE,121,5.0,11.0,33,0.00,,---,0.00,VWS V12.08,2013-05-27 00:15:00,
2013-05-26 19:20:00,70.3,39.9,30.01,SE,136,5.0,12.0,33,0.00,,---,0.00,VWS V12.08,2013-05-27 00:20:00,
2013-05-26 19:25:00,70.3,39.9,30.01,ESE,121,2.0,11.0,33,0.00,,---,0.00,VWS V12.08,2013-05-27 00:25:00,
2013-05-26 19:30:00,70.1,39.7,30.01,South,173,6.0,12.0,33,0.00,,---,0.00,VWS V12.08,2013-05-27 00:30:00,
2013-05-26 19:35:00,69.9,39.5,30.01,South,172,5.0,11.0,33,0.00,,---,0.00,VWS V12.08,2013-05-27 00:35:00,
2013-05-26 19:40:00,69.9,39.5,30.01,ENE,73,3.0,10.0,33,0.00,,---,0.00,VWS V12.08,2013-05-27 00:40:00,
2013-05-26 19:45:00,69.9,39.5,30.01,SSW,195,6.0,10.0,33,0.00,,---,0.00,VWS V12.08,2013-05-27 00:45:00,
2013-05-26 19:50:00,68.6,47.0,30.02,SSW,206,11.0,13.0,46,0.00,,---,0.00,VWS V12.08,2013-05-27 00:50:00,
2013-05-26 19:55:00,67.6,47.8,30.02,SSW,202,13.0,13.0,49,0.00,,---,0.00,VWS V12.08,2013-05-27 00:55:00,
2013-05-26 20:00:00,67.1,48.4,30.02,SSE,162,3.0,10.0,51,0.00,,---,0.00,VWS V12.08,2013-05-27 01:00:00,
2013-05-26 20:05:00,66.8,48.1,30.02,SW,222,12.0,13.0,51,0.00,,---,0.00,VWS V12.08,2013-05-27 01:05:00,
2013-05-26 20:10:00,66.4,47.7,30.02,NW,321,5.0,16.0,51,0.00,,---,0.00,VWS V12.08,2013-05-27 01:10:00,
2013-05-26 20:15:00,66.3,47.7,30.02,SW,227,2.0,11.0,51,0.00,,---,0.00,VWS V12.08,2013-05-27 01:15:00,
2013-05-26 20:20:00,66.1,48.0,30.02,SSW,211,6.0,12.0,52,0.00,,---,0.00,VWS V12.08,2013-05-27 01:20:00,
2013-05-26 20:25:00,66.0,47.9,30.02,SSW,194,2.0,11.0,52,0.00,,---,0.00,VWS V12.08,2013-05-27 01:25:00,
2013-05-26 20:30:00,65.6,47.0,30.02,South,189,5.0,12.0,51,0.00,,---,0.00,VWS V12.08,2013-05-27 01:30:00,
2013-05-26 20:35:00,65.6,47.0,30.02,SSE,155,1.0,7.0,51,0.00,,---,0.00,VWS V12.08,2013-05-27 01:35:00,
2013-05-26 20:40:00,65.3,47.2,30.02,SSW,209,6.0,10.0,52,0.00,,---,0.00,VWS V12.08,2013-05-27 01:40:00,
2013-05-26 20:45:00,65.2,47.2,30.02,WSW,246,6.0,9.0,52,0.00,,---,0.00,VWS V12.08,2013-05-27 01:45:00,
2013-05-26 20:50:00,65.2,47.2,30.02,South,173,2.0,4.0,52,0.00,,---,0.00,VWS V12.08,2013-05-27 01:50:00,
2013-05-26 20:55:00,65.0,47.0,30.02,South,185,4.0,10.0,52,0.00,,---,0.00,VWS V12.08,2013-05-27 01:55:00,
2013-05-26 20:59:00,64.8,46.8,30.02,SSW,192,3.0,6.0,52,0.00,,---,0.00,VWS V12.08,2013-05-27 01:59:00,
2013-05-26 21:04:00,64.8,47.3,30.02,SSW,193,2.0,6.0,53,0.00,,---,0.00,VWS V12.08,2013-05-27 02:04:00,
2013-05-26 21:09:00,64.7,47.2,30.02,SSW,210,4.0,9.0,53,0.00,,---,0.00,VWS V12.08,2013-05-27 02:09:00,
2013-05-26 21:14:00,64.5,47.0,30.02,South,172,4.0,6.0,53,0.00,,---,0.00,VWS V12.08,2013-05-27 02:14:00,
2013-05-26 21:19:00,64.3,46.8,30.02,South,182,1.0,10.0,53,0.00,,---,0.00,VWS V12.08,2013-05-27 02:19:00,
2013-05-26 21:24:00,64.3,46.3,30.02,South,169,3.0,11.0,52,0.00,,---,0.00,VWS V12.08,2013-05-27 02:24:00,
2013-05-26 21:29:00,64.2,46.7,30.02,South,182,5.0,7.0,53,0.00,,---,0.00,VWS V12.08,2013-05-27 02:29:00,
2013-05-26 21:34:00,64.0,46.5,30.02,South,180,3.0,4.0,53,0.00,,---,0.00,VWS V12.08,2013-05-27 02:34:00,
2013-05-26 21:39:00,64.0,46.5,30.02,WSW,238,4.0,6.0,53,0.00,,---,0.00,VWS V12.08,2013-05-27 02:39:00,
2013-05-26 21:44:00,64.0,46.5,30.02,SSW,209,2.0,7.0,53,0.00,,---,0.00,VWS V12.08,2013-05-27 02:44:00,
2013-05-26 21:49:00,63.9,46.5,30.02,South,191,3.0,7.0,53,0.00,,---,0.00,VWS V12.08,2013-05-27 02:49:00,
2013-05-26 21:54:00,63.9,47.0,30.02,SSW,212,3.0,6.0,54,0.00,,---,0.00,VWS V12.08,2013-05-27 02:54:00,
2013-05-26 21:59:00,63.7,46.8,30.02,SSW,206,5.0,6.0,54,0.00,,---,0.00,VWS V12.08,2013-05-27 02:59:00,
2013-05-26 22:04:00,63.5,46.6,30.03,South,171,3.0,7.0,54,0.00,,---,0.00,VWS V12.08,2013-05-27 03:04:00,
2013-05-26 22:09:00,63.4,47.0,30.03,SSE,168,2.0,7.0,55,0.00,,---,0.00,VWS V12.08,2013-05-27 03:09:00,
2013-05-26 22:14:00,63.2,46.8,30.03,South,190,6.0,7.0,55,0.00,,---,0.00,VWS V12.08,2013-05-27 03:14:00,
2013-05-26 22:19:00,63.1,46.7,30.03,SSW,209,5.0,7.0,55,0.00,,---,0.00,VWS V12.08,2013-05-27 03:19:00,
2013-05-26 22:24:00,63.1,46.7,30.03,South,180,6.0,7.0,55,0.00,,---,0.00,VWS V12.08,2013-05-27 03:24:00,
2013-05-26 22:29:00,62.9,46.5,30.03,SE,132,1.0,6.0,55,0.00,,---,0.00,VWS V12.08,2013-05-27 03:29:00,
2013-05-26 22:34:00,62.7,46.3,30.02,SSW,208,6.0,9.0,55,0.00,,---,0.00,VWS V12.08,2013-05-27 03:34:00,
2013-05-26 22:39:00,62.6,46.7,30.02,South,172,4.0,6.0,56,0.00,,---,0.00,VWS V12.08,2013-05-27 03:39:00,
2013-05-26 22:44:00,62.6,46.2,30.02,SSE,164,3.0,6.0,55,0.00,,---,0.00,VWS V12.08,2013-05-27 03:44:00,
2013-05-26 22:49:00,62.6,46.2,30.02,South,183,1.0,5.0,55,0.00,,---,0.00,VWS V12.08,2013-05-27 03:49:00,
2013-05-26 22:54:00,62.6,46.2,30.02,South,188,2.0,6.0,55,0.00,,---,0.00,VWS V12.08,2013-05-27 03:54:00,
2013-05-26 22:59:00,62.6,46.2,30.02,SSW,209,5.0,6.0,55,0.00,,---,0.00,VWS V12.08,2013-05-27 03:59:00,
2013-05-26 23:01:00,62.6,46.2,30.02,SSW,207,2.0,6.0,55,0.00,,---,0.00,VWS V12.08,2013-05-27 04:01:00,
2013-05-26 23:06:00,62.4,46.0,30.02,South,171,2.0,4.0,55,0.00,,---,0.00,VWS V12.08,2013-05-27 04:06:00,
2013-05-26 23:11:00,62.4,46.0,30.02,SSW,202,4.0,7.0,55,0.00,,---,0.00,VWS V12.08,2013-05-27 04:11:00,
2013-05-26 23:16:00,62.3,46.4,30.02,South,182,2.0,5.0,56,0.00,,---,0.00,VWS V12.08,2013-05-27 04:16:00,
2013-05-26 23:21:00,62.1,46.2,30.01,South,176,3.0,9.0,56,0.00,,---,0.00,VWS V12.08,2013-05-27 04:21:00,
2013-05-26 23:26:00,62.0,46.1,30.01,SE,138,5.0,9.0,56,0.00,,---,0.00,VWS V12.08,2013-05-27 04:26:00,
2013-05-26 23:31:00,61.8,46.0,30.01,SSW,192,2.0,9.0,56,0.00,,---,0.00,VWS V12.08,2013-05-27 04:31:00,
2013-05-26 23:36:00,61.6,46.2,30.01,South,184,5.0,9.0,57,0.00,,---,0.00,VWS V12.08,2013-05-27 04:36:00,
2013-05-26 23:41:00,61.6,46.2,30.01,South,173,3.0,9.0,57,0.00,,---,0.00,VWS V12.08,2013-05-27 04:41:00,
2013-05-26 23:46:00,61.5,46.1,30.01,SSW,196,6.0,7.0,57,0.00,,---,0.00,VWS V12.08,2013-05-27 04:46:00,
2013-05-26 23:51:00,61.3,46.0,30.01,SSW,198,2.0,7.0,57,0.00,,---,0.00,VWS V12.08,2013-05-27 04:51:00,
2013-05-26 23:56:00,61.3,46.0,30.01,South,178,4.0,10.0,57,0.00,,---,0.00,VWS V12.08,2013-05-27 04:56:00,